| time (UTC) | temp C | wind direction | speed KPH | gust KPH | rain 1hr cm | rain 24hr cm | rain mn cm | humidity % | barometer mb |
| 20260506201923 | 19 | 156 | 8.0 | 19.3 | 0.00 | 0.51 | 0.51 | 83 | 1006.7 |
| 20260506201417 | 19 | 229 | 6.4 | 14.5 | 0.00 | 0.51 | 0.51 | 84 | 1006.8 |
| 20260506200913 | 18 | 196 | 6.4 | 17.7 | 0.00 | 0.51 | 0.51 | 84 | 1006.7 |
| 20260506200845 | 18 | 238 | 6.4 | 19.3 | 0.00 | 0.51 | 0.51 | 84 | 1006.8 |
| 20260506195901 | 18 | 205 | 6.4 | 19.3 | 0.00 | 0.51 | 0.51 | 84 | 1006.9 |
| 20260506195356 | 18 | 254 | 6.4 | 16.1 | 0.00 | 0.51 | 0.51 | 85 | 1006.9 |
| 20260506194855 | 18 | 202 | 8.0 | 16.1 | 0.00 | 0.51 | 0.51 | 84 | 1006.9 |
| 20260506194358 | 18 | 211 | 6.4 | 16.1 | 0.00 | 0.51 | 0.51 | 85 | 1007.1 |
| 20260506193855 | 18 | 210 | 8.0 | 17.7 | 0.00 | 0.51 | 0.51 | 85 | 1007.1 |
| 20260506193401 | 18 | 225 | 9.7 | 20.9 | 0.00 | 0.51 | 0.51 | 86 | 1007.2 |
| 20260506192858 | 18 | 218 | 8.0 | 20.9 | 0.00 | 0.51 | 0.51 | 85 | 1007.2 |
| 20260506192618 | 18 | 232 | 8.0 | 24.1 | 0.00 | 0.51 | 0.51 | 86 | 1007.1 |
| 20260506191856 | 18 | 223 | 8.0 | 24.1 | 0.00 | 0.51 | 0.51 | 86 | 1007.2 |
| 20260506191355 | 18 | 222 | 8.0 | 24.1 | 0.00 | 0.51 | 0.51 | 87 | 1007.2 |
| 20260506190901 | 18 | 228 | 8.0 | 24.1 | 0.00 | 0.51 | 0.51 | 87 | 1007.3 |
| 20260506190356 | 17 | 165 | 6.4 | 17.7 | 0.00 | 0.51 | 0.51 | 87 | 1007.5 |
| 20260506185859 | 17 | 209 | 4.8 | 16.1 | 0.00 | 0.51 | 0.51 | 88 | 1007.5 |
| 20260506185359 | 17 | 180 | 6.4 | 16.1 | 0.00 | 0.51 | 0.51 | 88 | 1007.6 |
| 20260506184855 | 17 | 209 | 8.0 | 19.3 | 0.00 | 0.51 | 0.51 | 88 | 1007.6 |
| 20260506184356 | 17 | 207 | 8.0 | 19.3 | 0.00 | 0.51 | 0.51 | 88 | 1007.7 |
| 20260506183854 | 17 | 154 | 6.4 | 17.7 | 0.00 | 0.51 | 0.51 | 89 | 1007.7 |
| 20260506183348 | 17 | 221 | 6.4 | 19.3 | 0.00 | 0.51 | 0.51 | 89 | 1007.7 |
| 20260506182843 | 16 | 202 | 9.7 | 19.3 | 0.00 | 0.51 | 0.51 | 89 | 1007.8 |
| 20260506182343 | 16 | 211 | 8.0 | 20.9 | 0.00 | 0.51 | 0.51 | 89 | 1007.8 |
| 20260506182110 | 16 | 212 | 8.0 | 20.9 | 0.00 | 0.51 | 0.51 | 89 | 1007.8 |
| 20260506181343 | 16 | 209 | 8.0 | 17.7 | 0.00 | 0.51 | 0.51 | 89 | 1008.0 |
| 20260506180843 | 16 | 215 | 6.4 | 17.7 | 0.00 | 0.51 | 0.51 | 89 | 1008.1 |
| 20260506180343 | 16 | 207 | 6.4 | 17.7 | 0.00 | 0.51 | 0.51 | 89 | 1008.2 |
| 20260506175846 | 16 | 144 | 8.0 | 17.7 | 0.00 | 0.51 | 0.51 | 89 | 1008.1 |
| 20260506175343 | 16 | 207 | 9.7 | 22.5 | 0.00 | 0.51 | 0.51 | 89 | 1008.0 |
| 20260506174844 | 16 | 222 | 9.7 | 22.5 | 0.00 | 0.51 | 0.51 | 89 | 1008.1 |
| 20260506174349 | 16 | 220 | 9.7 | 24.1 | 0.00 | 0.51 | 0.51 | 89 | 1007.9 |
| 20260506173842 | 16 | 186 | 11.3 | 25.7 | 0.00 | 0.51 | 0.51 | 89 | 1007.9 |
| 20260506173344 | 16 | 247 | 9.7 | 25.7 | 0.00 | 0.51 | 0.51 | 89 | 1008.0 |
| 20260506172843 | 16 | 153 | 8.0 | 22.5 | 0.00 | 0.51 | 0.51 | 89 | 1008.1 |
| 20260506172349 | 16 | 165 | 11.3 | 22.5 | 0.00 | 0.51 | 0.51 | 89 | 1008.0 |
| 20260506171836 | 16 | 221 | 11.3 | 22.5 | 0.00 | 0.51 | 0.51 | 89 | 1008.0 |
| 20260506171333 | 16 | 207 | 9.7 | 22.5 | 0.00 | 0.51 | 0.51 | 89 | 1008.0 |
| 20260506170833 | 16 | 154 | 9.7 | 27.4 | 0.00 | 0.51 | 0.51 | 89 | 1007.9 |
| 20260506170329 | 16 | 230 | 9.7 | 27.4 | 0.03 | 0.51 | 0.51 | 89 | 1007.9 |
| 20260506165834 | 16 | 268 | 8.0 | 19.3 | 0.03 | 0.51 | 0.51 | 90 | 1008.0 |
| 20260506165555 | 16 | 194 | 8.0 | 24.1 | 0.03 | 0.51 | 0.51 | 90 | 1008.0 |
| 20260506164830 | 16 | 180 | 9.7 | 29.0 | 0.05 | 0.51 | 0.51 | 90 | 1008.2 |
| 20260506164330 | 16 | 228 | 8.0 | 29.0 | 0.05 | 0.51 | 0.51 | 90 | 1008.2 |
| 20260506163831 | 16 | 136 | 8.0 | 17.7 | 0.10 | 0.51 | 0.51 | 90 | 1008.3 |
| 20260506163329 | 16 | 217 | 8.0 | 24.1 | 0.13 | 0.51 | 0.51 | 90 | 1008.2 |
| 20260506162829 | 16 | 180 | 8.0 | 24.1 | 0.15 | 0.51 | 0.51 | 90 | 1008.3 |
| 20260506162331 | 16 | 209 | 8.0 | 24.1 | 0.18 | 0.51 | 0.51 | 90 | 1008.4 |
| 20260506161829 | 16 | 147 | 8.0 | 24.1 | 0.20 | 0.51 | 0.51 | 90 | 1008.4 |
| 20260506161544 | 16 | 311 | 8.0 | 24.1 | 0.23 | 0.51 | 0.51 | 90 | 1008.3 |
| 20260506160825 | 16 | 160 | 8.0 | 24.1 | 0.23 | 0.51 | 0.51 | 90 | 1008.4 |
| 20260506160325 | 16 | 138 | 8.0 | 22.5 | 0.23 | 0.48 | 0.48 | 90 | 1008.3 |
| 20260506155825 | 16 | 207 | 8.0 | 22.5 | 0.23 | 0.48 | 0.48 | 90 | 1008.1 |
| 20260506155541 | 16 | 184 | 8.0 | 25.7 | 0.25 | 0.48 | 0.48 | 90 | 1008.4 |
| 20260506154824 | 16 | 140 | 9.7 | 25.7 | 0.23 | 0.46 | 0.46 | 90 | 1008.7 |
| 20260506154326 | 16 | 165 | 8.0 | 25.7 | 0.25 | 0.46 | 0.46 | 90 | 1008.9 |
| 20260506154040 | 16 | 146 | 6.4 | 22.5 | 0.23 | 0.38 | 0.38 | 90 | 1009.0 |
| 20260506153924 | 16 | 133 | 4.8 | 22.5 | 0.23 | 0.41 | 0.43 | 90 | 1008.9 |
| 20260506152828 | 16 | 145 | 4.8 | 14.5 | 0.20 | 0.36 | 0.36 | 89 | 1009.2 |
| 20260506152325 | 16 | 111 | 6.4 | 16.1 | 0.20 | 0.33 | 0.33 | 89 | 1009.2 |
| 20260506151825 | 16 | 169 | 6.4 | 19.3 | 0.18 | 0.30 | 0.30 | 89 | 1009.3 |
| 20260506151327 | 16 | 254 | 4.8 | 19.3 | 0.18 | 0.28 | 0.28 | 89 | 1009.3 |
| 20260506150829 | 16 | 227 | 4.8 | 14.5 | 0.18 | 0.28 | 0.28 | 89 | 1009.3 |
| 20260506150326 | 16 | 190 | 4.8 | 22.5 | 0.18 | 0.25 | 0.25 | 89 | 1009.1 |
| 20260506145825 | 16 | 184 | 6.4 | 22.5 | 0.18 | 0.25 | 0.25 | 89 | 1009.1 |
| 20260506145326 | 16 | 164 | 6.4 | 19.3 | 0.18 | 0.23 | 0.23 | 89 | 1009.1 |
| 20260506144827 | 16 | 194 | 8.0 | 19.3 | 0.20 | 0.23 | 0.23 | 89 | 1009.0 |
| 20260506144325 | 16 | 142 | 8.0 | 24.1 | 0.20 | 0.20 | 0.20 | 89 | 1009.0 |
| 20260506143826 | 16 | 136 | 8.0 | 24.1 | 0.18 | 0.18 | 0.18 | 89 | 1009.0 |
| 20260506143326 | 16 | 161 | 6.4 | 19.3 | 0.15 | 0.15 | 0.15 | 89 | 1009.1 |
| 20260506142825 | 16 | 252 | 4.8 | 19.3 | 0.15 | 0.15 | 0.15 | 89 | 1009.1 |
| 20260506142800 | 16 | 200 | 4.8 | 19.3 | 0.13 | 0.13 | 0.13 | 88 | 1009.2 |
| 20260506141824 | 16 | 193 | 4.8 | 16.1 | 0.13 | 0.13 | 0.13 | 88 | 1009.2 |
| 20260506141328 | 16 | 238 | 4.8 | 16.1 | 0.10 | 0.10 | 0.10 | 88 | 1009.1 |
| 20260506140826 | 16 | 163 | 4.8 | 17.7 | 0.10 | 0.10 | 0.10 | 88 | 1009.1 |
| 20260506140325 | 16 | 172 | 6.4 | 17.7 | 0.08 | 0.08 | 0.08 | 87 | 1009.1 |
| 20260506135825 | 16 | 169 | 6.4 | 12.9 | 0.08 | 0.08 | 0.08 | 87 | 1009.1 |
| 20260506135325 | 16 | 130 | 6.4 | 17.7 | 0.05 | 0.05 | 0.05 | 86 | 1009.1 |
| 20260506135043 | 16 | 181 | 6.4 | 24.1 | 0.03 | 0.03 | 0.03 | 85 | 1009.2 |
| 20260506134539 | 17 | 355 | 4.8 | 24.1 | 0.00 | 0.00 | 0.00 | 84 | 1009.1 |
| 20260506133806 | 17 | 210 | 6.4 | 22.5 | 0.00 | 0.00 | 0.00 | 84 | 1009.0 |
| 20260506133307 | 17 | 157 | 6.4 | 20.9 | 0.00 | 0.00 | 0.00 | 83 | 1008.9 |
| 20260506132754 | 17 | 223 | 6.4 | 19.3 | 0.00 | 0.00 | 0.00 | 83 | 1009.1 |
| 20260506132246 | 17 | 155 | 8.0 | 19.3 | 0.00 | 0.00 | 0.00 | 82 | 1009.0 |
| 20260506131739 | 17 | 225 | 6.4 | 16.1 | 0.00 | 0.00 | 0.00 | 82 | 1009.0 |
| 20260506131236 | 17 | 202 | 6.4 | 25.7 | 0.00 | 0.00 | 0.00 | 82 | 1009.1 |
| 20260506130730 | 17 | 232 | 6.4 | 25.7 | 0.00 | 0.00 | 0.00 | 81 | 1009.1 |
| 20260506130224 | 17 | 115 | 6.4 | 20.9 | 0.00 | 0.00 | 0.00 | 82 | 1009.2 |
| 20260506125722 | 17 | 187 | 8.0 | 20.9 | 0.00 | 0.00 | 0.00 | 81 | 1009.1 |
| 20260506125222 | 17 | 221 | 8.0 | 19.3 | 0.00 | 0.00 | 0.00 | 81 | 1009.2 |
| 20260506124729 | 17 | 127 | 9.7 | 19.3 | 0.00 | 0.00 | 0.00 | 81 | 1009.2 |
| 20260506124223 | 17 | 148 | 8.0 | 25.7 | 0.00 | 0.00 | 0.00 | 80 | 1009.2 |
| 20260506123724 | 17 | 206 | 9.7 | 25.7 | 0.00 | 0.00 | 0.00 | 79 | 1009.3 |
| 20260506123658 | 18 | 223 | 11.3 | 30.6 | 0.00 | 0.00 | 0.00 | 78 | 1009.3 |
| 20260506122720 | 18 | 130 | 11.3 | 30.6 | 0.00 | 0.00 | 0.00 | 78 | 1009.4 |
| 20260506122221 | 18 | 226 | 8.0 | 22.5 | 0.00 | 0.00 | 0.00 | 77 | 1009.2 |
| 20260506121720 | 18 | 219 | 8.0 | 20.9 | 0.00 | 0.00 | 0.00 | 78 | 1009.1 |
| 20260506121222 | 18 | 225 | 11.3 | 30.6 | 0.00 | 0.00 | 0.00 | 78 | 1009.0 |
| 20260506120950 | 18 | 157 | 11.3 | 30.6 | 0.00 | 0.00 | 0.00 | 78 | 1008.9 |
| 20260506120220 | 18 | 191 | 9.7 | 25.7 | 0.00 | 0.00 | 0.00 | 78 | 1009.0 |
| 20260506115947 | 18 | 190 | 9.7 | 27.4 | 0.00 | 0.00 | 0.00 | 78 | 1008.9 |
| 20260506115223 | 18 | 196 | 9.7 | 27.4 | 0.00 | 0.00 | 0.00 | 78 | 1008.9 |
| 20260506114722 | 18 | 188 | 9.7 | 19.3 | 0.00 | 0.00 | 0.00 | 78 | 1008.7 |
| 20260506114222 | 18 | 254 | 9.7 | 25.7 | 0.00 | 0.00 | 0.00 | 78 | 1008.7 |
| 20260506113721 | 18 | 200 | 9.7 | 25.7 | 0.00 | 0.00 | 0.00 | 78 | 1008.7 |
| 20260506113216 | 17 | 207 | 8.0 | 24.1 | 0.00 | 0.00 | 0.00 | 78 | 1008.6 |
| 20260506112708 | 17 | 212 | 8.0 | 24.1 | 0.00 | 0.00 | 0.00 | 78 | 1008.7 |
| 20260506112215 | 17 | 205 | 9.7 | 25.7 | 0.00 | 0.00 | 0.00 | 78 | 1008.6 |
| 20260506111656 | 17 | 161 | 9.7 | 25.7 | 0.00 | 0.00 | 0.00 | 78 | 1008.5 |
| 20260506111150 | 17 | 121 | 8.0 | 20.9 | 0.00 | 0.00 | 0.00 | 78 | 1008.5 |
| 20260506110643 | 17 | 199 | 8.0 | 22.5 | 0.00 | 0.00 | 0.00 | 78 | 1008.5 |
| 20260506110141 | 17 | 225 | 8.0 | 22.5 | 0.00 | 0.00 | 0.00 | 79 | 1008.5 |
| 20260506105631 | 17 | 192 | 8.0 | 17.7 | 0.00 | 0.00 | 0.00 | 79 | 1008.4 |
| 20260506105125 | 17 | 118 | 9.7 | 25.7 | 0.00 | 0.00 | 0.00 | 79 | 1008.3 |
| 20260506104619 | 17 | 242 | 11.3 | 25.7 | 0.00 | 0.00 | 0.00 | 78 | 1008.4 |
| 20260506104113 | 17 | 161 | 9.7 | 30.6 | 0.00 | 0.00 | 0.00 | 78 | 1008.4 |
| 20260506103609 | 17 | 188 | 9.7 | 30.6 | 0.00 | 0.00 | 0.00 | 78 | 1008.3 |
| 20260506103103 | 17 | 194 | 9.7 | 24.1 | 0.00 | 0.00 | 0.00 | 79 | 1008.2 |
| 20260506102555 | 17 | 202 | 8.0 | 24.1 | 0.00 | 0.00 | 0.00 | 79 | 1008.4 |
| 20260506102051 | 17 | 163 | 8.0 | 20.9 | 0.00 | 0.00 | 0.00 | 79 | 1008.3 |
| 20260506101809 | 17 | 284 | 9.7 | 20.9 | 0.00 | 0.00 | 0.00 | 78 | 1008.3 |
| 20260506101038 | 17 | 162 | 8.0 | 19.3 | 0.00 | 0.00 | 0.00 | 78 | 1008.2 |
| 20260506100533 | 17 | 171 | 8.0 | 20.9 | 0.00 | 0.00 | 0.00 | 78 | 1008.2 |
| 20260506100026 | 17 | 159 | 9.7 | 24.1 | 0.00 | 0.00 | 0.00 | 78 | 1008.2 |
| 20260506095521 | 17 | 238 | 9.7 | 27.4 | 0.00 | 0.00 | 0.00 | 78 | 1008.3 |
| 20260506095239 | 17 | 196 | 8.0 | 27.4 | 0.00 | 0.00 | 0.00 | 78 | 1008.3 |
| 20260506094508 | 17 | 205 | 6.4 | 20.9 | 0.00 | 0.00 | 0.00 | 78 | 1008.2 |
| 20260506094002 | 17 | 221 | 6.4 | 24.1 | 0.00 | 0.00 | 0.00 | 77 | 1008.2 |
| 20260506093456 | 18 | 146 | 6.4 | 24.1 | 0.00 | 0.00 | 0.00 | 77 | 1008.2 |
| 20260506092950 | 18 | 171 | 6.4 | 17.7 | 0.00 | 0.00 | 0.00 | 76 | 1008.3 |
| 20260506092707 | 18 | 200 | 6.4 | 17.7 | 0.00 | 0.00 | 0.00 | 76 | 1008.4 |
| 20260506092208 | 18 | 192 | 6.4 | 17.7 | 0.00 | 0.00 | 0.00 | 76 | 1008.5 |
| 20260506091434 | 18 | 195 | 8.0 | 19.3 | 0.00 | 0.00 | 0.00 | 75 | 1008.4 |
| 20260506090926 | 18 | 178 | 8.0 | 19.3 | 0.00 | 0.00 | 0.00 | 75 | 1008.4 |
| 20260506090641 | 18 | 148 | 6.4 | 19.3 | 0.00 | 0.00 | 0.00 | 75 | 1008.5 |
| 20260506085914 | 18 | 132 | 8.0 | 24.1 | 0.00 | 0.00 | 0.00 | 74 | 1008.6 |
| 20260506085635 | 18 | 148 | 9.7 | 24.1 | 0.00 | 0.00 | 0.00 | 74 | 1008.5 |
| 20260506085126 | 18 | 171 | 8.0 | 19.3 | 0.00 | 0.00 | 0.00 | 74 | 1008.6 |
| 20260506084359 | 18 | 276 | 6.4 | 17.7 | 0.00 | 0.00 | 0.00 | 74 | 1008.6 |
| 20260506083859 | 18 | 159 | 8.0 | 16.1 | 0.00 | 0.00 | 0.00 | 73 | 1008.5 |
| 20260506083401 | 18 | 245 | 6.4 | 37.0 | 0.00 | 0.00 | 0.00 | 73 | 1008.6 |
| 20260506082858 | 18 | 152 | 6.4 | 37.0 | 0.00 | 0.00 | 0.00 | 73 | 1008.6 |
| 20260506082622 | 18 | 159 | 8.0 | 19.3 | 0.00 | 0.00 | 0.00 | 72 | 1008.6 |
| 20260506082122 | 19 | 165 | 8.0 | 24.1 | 0.00 | 0.00 | 0.00 | 72 | 1008.5 |
| 20260506081401 | 19 | 175 | 8.0 | 24.1 | 0.00 | 0.00 | 0.00 | 72 | 1008.5 |
| 20260506080857 | 19 | 198 | 6.4 | 16.1 | 0.00 | 0.00 | 0.00 | 72 | 1008.6 |
| 20260506080401 | 19 | 155 | 6.4 | 16.1 | 0.00 | 0.00 | 0.00 | 71 | 1008.6 |
| 20260506073356 | 19 | 128 | 8.0 | 19.3 | 0.00 | 0.00 | 0.00 | 70 | 1008.8 |
| 20260506073115 | 19 | 195 | 8.0 | 17.7 | 0.00 | 0.00 | 0.00 | 69 | 1008.7 |
| 20260506072357 | 19 | 96 | 6.4 | 16.1 | 0.00 | 0.00 | 0.00 | 69 | 1008.8 |
| 20260506071849 | 19 | 178 | 6.4 | 16.1 | 0.00 | 0.00 | 0.00 | 69 | 1008.8 |
| 20260506071349 | 19 | 213 | 6.4 | 17.7 | 0.00 | 0.00 | 0.00 | 69 | 1008.9 |
| 20260506070850 | 19 | 226 | 6.4 | 20.9 | 0.00 | 0.00 | 0.00 | 69 | 1008.9 |
| 20260506070844 | 19 | 147 | 6.4 | 20.9 | 0.00 | 0.00 | 0.00 | 69 | 1008.9 |
| 20260506070110 | 19 | 200 | 6.4 | 16.1 | 0.00 | 0.00 | 0.00 | 68 | 1009.0 |
| 20260506062341 | 19 | 146 | 4.8 | 11.3 | 0.00 | 0.00 | 0.00 | 67 | 1009.3 |
| 20260506062335 | 19 | 174 | 6.4 | 12.9 | 0.00 | 0.00 | 0.00 | 67 | 1009.4 |
| 20260506061343 | 19 | 171 | 6.4 | 16.1 | 0.00 | 0.00 | 0.00 | 67 | 1009.4 |
| 20260506060853 | 19 | 141 | 6.4 | 16.1 | 0.00 | 0.00 | 0.00 | 67 | 1009.4 |
| 20260506060339 | 19 | 163 | 4.8 | 12.9 | 0.00 | 0.00 | 0.00 | 66 | 1009.4 |
| 20260506051339 | 19 | 149 | 4.8 | 12.9 | 0.00 | 0.00 | 0.00 | 65 | 1009.7 |
| 20260506050842 | 19 | 125 | 4.8 | 11.3 | 0.00 | 0.00 | 0.00 | 64 | 1009.7 |
| 20260506050336 | 19 | 146 | 4.8 | 11.3 | 0.00 | 0.00 | 0.00 | 64 | 1009.8 |
| 20260506044828 | 19 | 161 | 4.8 | 14.5 | 0.00 | 0.00 | 0.00 | 63 | 1009.9 |
| 20260506044555 | 19 | 160 | 4.8 | 16.1 | 0.00 | 0.00 | 0.00 | 63 | 1009.8 |
| 20260506043830 | 19 | 165 | 4.8 | 16.1 | 0.00 | 0.00 | 0.00 | 63 | 1009.9 |
| 20260506043558 | 19 | 166 | 4.8 | 14.5 | 0.00 | 0.00 | 0.00 | 63 | 1009.9 |
| 20260506042834 | 19 | 191 | 4.8 | 12.9 | 0.00 | 0.00 | 0.00 | 63 | 1009.9 |
| 20260506042331 | 19 | 201 | 4.8 | 14.5 | 0.00 | 0.00 | 0.00 | 63 | 1009.9 |
| 20260506041827 | 19 | 230 | 6.4 | 17.7 | 0.00 | 0.00 | 0.00 | 63 | 1009.9 |
| 20260506041554 | 19 | 198 | 6.4 | 17.7 | 0.00 | 0.00 | 0.00 | 63 | 1009.9 |
| 20260506040828 | 19 | 155 | 6.4 | 14.5 | 0.00 | 0.00 | 0.00 | 63 | 1009.9 |
| 20260506040549 | 19 | 147 | 4.8 | 14.5 | 0.00 | 0.00 | 0.00 | 63 | 1009.9 |
| 20260506035823 | 19 | 180 | 6.4 | 14.5 | 0.00 | 0.00 | 0.00 | 63 | 1009.8 |
| 20260506035324 | 19 | 197 | 6.4 | 14.5 | 0.00 | 0.00 | 0.00 | 63 | 1009.9 |
| 20260506034826 | 19 | 184 | 4.8 | 11.3 | 0.00 | 0.00 | 0.00 | 63 | 1009.9 |
| 20260506034325 | 19 | 150 | 6.4 | 14.5 | 0.00 | 0.00 | 0.00 | 63 | 1009.9 |
| 20260506033823 | 19 | 177 | 6.4 | 14.5 | 0.00 | 0.00 | 0.00 | 63 | 1009.9 |
| 20260506033324 | 19 | 209 | 4.8 | 14.5 | 0.00 | 0.00 | 0.00 | 63 | 1009.8 |
| 20260506032824 | 19 | 140 | 4.8 | 11.3 | 0.00 | 0.00 | 0.00 | 63 | 1009.9 |
| 20260506032324 | 19 | 164 | 4.8 | 9.7 | 0.00 | 0.00 | 0.00 | 62 | 1009.8 |
| 20260506031823 | 19 | 203 | 4.8 | 16.1 | 0.00 | 0.00 | 0.00 | 62 | 1009.8 |
| 20260506031323 | 20 | 185 | 6.4 | 16.1 | 0.00 | 0.00 | 0.00 | 62 | 1009.8 |
| 20260506031312 | 20 | 184 | 6.4 | 12.9 | 0.00 | 0.00 | 0.00 | 62 | 1009.7 |
| 20260506030323 | 20 | 158 | 6.4 | 16.1 | 0.00 | 0.00 | 0.00 | 61 | 1009.8 |
| 20260506025824 | 20 | 154 | 6.4 | 19.3 | 0.00 | 0.00 | 0.00 | 61 | 1009.8 |
| 20260506025321 | 20 | 146 | 6.4 | 19.3 | 0.00 | 0.00 | 0.00 | 61 | 1009.8 |
| 20260506024821 | 20 | 215 | 4.8 | 19.3 | 0.00 | 0.00 | 0.00 | 61 | 1009.8 |
| 20260506024544 | 20 | 148 | 4.8 | 16.1 | 0.00 | 0.00 | 0.00 | 61 | 1009.8 |
| 20260506024037 | 20 | 207 | 6.4 | 19.3 | 0.00 | 0.00 | 0.00 | 60 | 1009.8 |
| 20260506023310 | 20 | 177 | 6.4 | 19.3 | 0.00 | 0.00 | 0.00 | 60 | 1009.7 |
| 20260506022810 | 20 | 242 | 6.4 | 14.5 | 0.00 | 0.00 | 0.00 | 59 | 1009.8 |
| 20260506022301 | 20 | 177 | 6.4 | 16.1 | 0.00 | 0.00 | 0.00 | 59 | 1009.9 |
| 20260506021754 | 20 | 198 | 6.4 | 19.3 | 0.00 | 0.00 | 0.00 | 59 | 1009.9 |
| 20260506021251 | 20 | 229 | 6.4 | 19.3 | 0.00 | 0.00 | 0.00 | 59 | 1009.9 |
| 20260506021026 | 20 | 163 | 6.4 | 16.1 | 0.00 | 0.00 | 0.00 | 58 | 1009.9 |
| 20260506020306 | 20 | 157 | 8.0 | 22.5 | 0.00 | 0.00 | 0.00 | 57 | 1009.8 |
| 20260506015751 | 21 | 259 | 8.0 | 22.5 | 0.00 | 0.00 | 0.00 | 57 | 1009.8 |
| 20260506015252 | 20 | 210 | 4.8 | 14.5 | 0.00 | 0.00 | 0.00 | 57 | 1009.8 |
| 20260506014754 | 20 | 207 | 4.8 | 14.5 | 0.00 | 0.00 | 0.00 | 57 | 1009.6 |
| 20260506014250 | 20 | 158 | 6.4 | 14.5 | 0.00 | 0.00 | 0.00 | 57 | 1009.5 |
| 20260506013751 | 21 | 159 | 6.4 | 14.5 | 0.00 | 0.00 | 0.00 | 56 | 1009.5 |
| 20260506013251 | 21 | 209 | 6.4 | 14.5 | 0.00 | 0.00 | 0.00 | 56 | 1009.5 |
| 20260506012749 | 21 | 216 | 4.8 | 14.5 | 0.00 | 0.00 | 0.00 | 55 | 1009.6 |
| 20260506012510 | 21 | 216 | 6.4 | 14.5 | 0.00 | 0.00 | 0.00 | 55 | 1009.4 |
| 20260506011745 | 21 | 120 | 6.4 | 12.9 | 0.00 | 0.00 | 0.00 | 54 | 1009.3 |
| 20260506011248 | 21 | 179 | 4.8 | 12.9 | 0.00 | 0.00 | 0.00 | 54 | 1009.3 |
| 20260506010746 | 21 | 157 | 4.8 | 16.1 | 0.00 | 0.00 | 0.00 | 53 | 1009.3 |
| 20260506010249 | 22 | 154 | 8.0 | 19.3 | 0.00 | 0.00 | 0.00 | 52 | 1009.2 |
| 20260506010232 | 22 | 196 | 9.7 | 19.3 | 0.00 | 0.00 | 0.00 | 52 | 1009.1 |
| 20260506005248 | 22 | 189 | 9.7 | 25.7 | 0.00 | 0.00 | 0.00 | 51 | 1009.0 |
| 20260506004745 | 22 | 142 | 8.0 | 25.7 | 0.00 | 0.00 | 0.00 | 51 | 1009.0 |
| 20260506004243 | 22 | 134 | 8.0 | 19.3 | 0.00 | 0.00 | 0.00 | 50 | 1009.0 |
| 20260506003731 | 22 | 196 | 8.0 | 19.3 | 0.00 | 0.00 | 0.00 | 50 | 1008.9 |
| 20260506003454 | 22 | 194 | 8.0 | 19.3 | 0.00 | 0.00 | 0.00 | 49 | 1008.9 |
| 20260506002719 | 22 | 151 | 8.0 | 14.5 | 0.00 | 0.00 | 0.00 | 49 | 1008.9 |
| 20260506002213 | 22 | 153 | 8.0 | 16.1 | 0.00 | 0.00 | 0.00 | 49 | 1008.9 |
| 20260506001927 | 22 | 151 | 6.4 | 16.1 | 0.00 | 0.00 | 0.00 | 49 | 1008.8 |
| 20260506001202 | 22 | 139 | 6.4 | 14.5 | 0.00 | 0.00 | 0.00 | 49 | 1008.7 |
| 20260506000657 | 23 | 149 | 4.8 | 12.9 | 0.00 | 0.00 | 0.00 | 48 | 1008.7 |
| 20260506000155 | 23 | 153 | 4.8 | 11.3 | 0.00 | 0.00 | 0.00 | 48 | 1008.7 |
| 20260505235646 | 23 | 143 | 6.4 | 19.3 | 0.00 | 0.00 | 0.00 | 47 | 1008.6 |
| 20260505235140 | 23 | 178 | 8.0 | 19.3 | 0.00 | 0.00 | 0.00 | 47 | 1008.6 |
| 20260505234645 | 23 | 170 | 6.4 | 14.5 | 0.00 | 0.00 | 0.00 | 47 | 1008.5 |
| 20260505234127 | 23 | 119 | 4.8 | 17.7 | 0.00 | 0.00 | 0.00 | 46 | 1008.5 |
| 20260505233623 | 23 | 172 | 6.4 | 17.7 | 0.00 | 0.00 | 0.00 | 46 | 1008.4 |
| 20260505233121 | 23 | 188 | 8.0 | 17.7 | 0.00 | 0.00 | 0.00 | 46 | 1008.3 |
| 20260505232619 | 23 | 133 | 6.4 | 17.7 | 0.00 | 0.00 | 0.00 | 46 | 1008.3 |
| 20260505232120 | 23 | 146 | 6.4 | 16.1 | 0.00 | 0.00 | 0.00 | 46 | 1008.4 |
| 20260505231619 | 24 | 159 | 6.4 | 14.5 | 0.00 | 0.00 | 0.00 | 45 | 1008.4 |
| 20260505231122 | 24 | 132 | 6.4 | 17.7 | 0.00 | 0.00 | 0.00 | 45 | 1008.4 |
| 20260505230620 | 24 | 132 | 8.0 | 17.7 | 0.00 | 0.00 | 0.00 | 45 | 1008.4 |
| 20260505230120 | 25 | 173 | 6.4 | 16.1 | 0.00 | 0.00 | 0.00 | 44 | 1008.4 |
| 20260505225844 | 25 | 127 | 8.0 | 17.7 | 0.00 | 0.00 | 0.00 | 44 | 1008.4 |
| 20260505225121 | 25 | 123 | 8.0 | 17.7 | 0.00 | 0.00 | 0.00 | 43 | 1008.4 |
| 20260505224843 | 25 | 150 | 8.0 | 24.1 | 0.00 | 0.00 | 0.00 | 43 | 1008.4 |
| 20260505224119 | 25 | 209 | 8.0 | 24.1 | 0.00 | 0.00 | 0.00 | 42 | 1008.4 |
| 20260505223619 | 25 | 194 | 6.4 | 19.3 | 0.00 | 0.00 | 0.00 | 43 | 1008.4 |
| 20260505223115 | 26 | 150 | 8.0 | 16.1 | 0.00 | 0.00 | 0.00 | 44 | 1008.3 |
| 20260505222838 | 26 | 167 | 8.0 | 17.7 | 0.00 | 0.00 | 0.00 | 44 | 1008.4 |
| 20260505222113 | 26 | 191 | 8.0 | 24.1 | 0.00 | 0.00 | 0.00 | 42 | 1008.4 |
| 20260505221611 | 26 | 165 | 11.3 | 29.0 | 0.00 | 0.00 | 0.00 | 42 | 1008.5 |
| 20260505221338 | 26 | 156 | 9.7 | 29.0 | 0.00 | 0.00 | 0.00 | 41 | 1008.4 |
| 20260505220605 | 26 | 123 | 8.0 | 20.9 | 0.00 | 0.00 | 0.00 | 40 | 1008.4 |
| 20260505215553 | 26 | 189 | 8.0 | 22.5 | 0.00 | 0.00 | 0.00 | 41 | 1008.4 |
| 20260505215046 | 26 | 162 | 9.7 | 22.5 | 0.00 | 0.00 | 0.00 | 41 | 1008.4 |
| 20260505214543 | 26 | 198 | 9.7 | 29.0 | 0.00 | 0.00 | 0.00 | 40 | 1008.4 |
| 20260505214034 | 26 | 259 | 12.9 | 29.0 | 0.00 | 0.00 | 0.00 | 40 | 1008.4 |
| 20260505213528 | 27 | 246 | 12.9 | 29.0 | 0.00 | 0.00 | 0.00 | 39 | 1008.4 |
| 20260505213022 | 27 | 246 | 9.7 | 29.0 | 0.00 | 0.00 | 0.00 | 39 | 1008.3 |
| 20260505212518 | 27 | 212 | 11.3 | 33.8 | 0.00 | 0.00 | 0.00 | 40 | 1008.1 |
| 20260505212020 | 26 | 153 | 12.9 | 33.8 | 0.00 | 0.00 | 0.00 | 39 | 1008.1 |
| 20260505211517 | 27 | 215 | 11.3 | 27.4 | 0.00 | 0.00 | 0.00 | 38 | 1008.2 |
| 20260505211248 | 27 | 212 | 11.3 | 30.6 | 0.00 | 0.00 | 0.00 | 37 | 1008.2 |
| 20260505210518 | 27 | 227 | 11.3 | 30.6 | 0.00 | 0.00 | 0.00 | 37 | 1008.1 |
| 20260505210016 | 27 | 140 | 12.9 | 29.0 | 0.00 | 0.00 | 0.00 | 38 | 1008.1 |
| 20260505205515 | 27 | 124 | 14.5 | 37.0 | 0.00 | 0.00 | 0.00 | 37 | 1008.1 |
| 20260505205016 | 27 | 217 | 12.9 | 37.0 | 0.00 | 0.00 | 0.00 | 36 | 1008.2 |
| 20260505204515 | 27 | 194 | 12.9 | 30.6 | 0.00 | 0.00 | 0.00 | 36 | 1008.2 |
| 20260505204233 | 27 | 167 | 12.9 | 38.6 | 0.00 | 0.00 | 0.00 | 36 | 1008.2 |
| 20260505203515 | 27 | 227 | 11.3 | 38.6 | 0.00 | 0.00 | 0.00 | 36 | 1008.3 |
| 20260505203249 | 27 | 211 | 12.9 | 29.0 | 0.00 | 0.00 | 0.00 | 39 | 1008.2 |
| 20260505202515 | 27 | 218 | 12.9 | 29.0 | 0.00 | 0.00 | 0.00 | 36 | 1008.2 |